KE5OYL Weather Reports


Display with metric or nautical units.
time (UTC)temp
F
wind
direction
speed
MPH
gust
MPH
rain 1hr
in
rain 24hr
in
rain mn
in
humidity
%
barometer
mb
20260508012722 67 141 3.0 3.0 0.00 0.00 0.00 65 1015.7
20260508012219 67 45 1.0 2.0 0.00 0.00 0.00 65 1015.6
20260508011717 67 82 2.0 2.0 0.00 0.00 0.00 64 1015.4
20260508011215 67 46 2.0 2.0 0.00 0.00 0.00 64 1015.4
20260508010711 67 153 2.0 3.0 0.00 0.00 0.00 63 1015.6
20260508010209 68 200 2.0 3.0 0.00 0.00 0.00 63 1015.5
20260508005706 68 171 3.0 3.0 0.00 0.00 0.00 62 1015.4
20260508005203 67 64 2.0 3.0 0.00 0.00 0.00 62 1015.4
20260508004658 67 184 4.0 5.0 0.00 0.00 0.00 62 1015.2
20260508004154 68 106 1.0 2.0 0.00 0.00 0.00 62 1015.4
20260508003652 68 110 3.0 3.0 0.00 0.00 0.00 62 1015.5
20260508003149 68 101 2.0 3.0 0.00 0.00 0.00 62 1015.6
20260508002645 68 164 2.0 6.0 0.00 0.00 0.00 61 1015.5
20260508002143 68 236 3.0 5.0 0.00 0.00 0.00 62 1015.5
20260508001638 68 40 1.0 3.0 0.00 0.00 0.00 61 1015.7
20260508001134 68 215 3.0 3.0 0.00 0.00 0.00 61 1015.7
20260508000630 68 188 4.0 5.0 0.00 0.00 0.00 61 1015.7
20260508000128 68 210 3.0 3.0 0.00 0.00 0.00 61 1015.8
20260507235624 68 210 3.0 5.0 0.00 0.00 0.00 60 1015.5
20260507235122 68 236 3.0 6.0 0.00 0.00 0.00 60 1015.6
20260507234618 68 168 3.0 5.0 0.00 0.00 0.00 60 1015.8
20260507234115 68 206 5.0 7.0 0.00 0.00 0.00 60 1015.6
20260507233612 69 213 4.0 5.0 0.00 0.00 0.00 59 1015.7
20260507233110 68 90 3.0 6.0 0.00 0.00 0.00 60 1015.7
20260507232611 69 161 3.0 7.0 0.00 0.00 0.00 60 1015.7
20260507232104 69 170 4.0 7.0 0.00 0.00 0.00 60 1015.6
20260507231600 69 166 4.0 6.0 0.00 0.00 0.00 60 1015.7
20260507231057 69 150 3.0 3.0 0.00 0.00 0.00 59 1015.7
20260507230554 69 181 3.0 6.0 0.00 0.00 0.00 59 1015.8
20260507230050 69 184 6.0 6.0 0.00 0.00 0.00 59 1015.9
20260507225545 69 171 5.0 7.0 0.00 0.00 0.00 59 1015.7
20260507225042 69 58 2.0 6.0 0.00 0.00 0.00 59 1015.8
20260507224538 69 202 3.0 7.0 0.00 0.00 0.00 58 1016.0
20260507224035 69 153 5.0 6.0 0.00 0.00 0.00 58 1016.1
20260507223531 69 197 5.0 8.0 0.00 0.00 0.00 58 1015.9
20260507223028 69 164 4.0 6.0 0.00 0.00 0.00 58 1016.0
20260507222525 69 233 3.0 5.0 0.00 0.00 0.00 58 1016.0
20260507222021 69 102 1.0 7.0 0.00 0.00 0.00 57 1016.2
20260507221518 69 219 3.0 5.0 0.00 0.00 0.00 57 1016.0
20260507221015 70 83 2.0 6.0 0.00 0.00 0.00 57 1015.8
20260507220512 69 153 5.0 7.0 0.00 0.00 0.00 57 1016.0
20260507220009 70 221 3.0 7.0 0.00 0.00 0.00 57 1016.0
20260507215505 70 225 2.0 5.0 0.00 0.00 0.00 56 1016.2
20260507215003 71 149 5.0 9.0 0.00 0.00 0.00 55 1016.1
20260507214500 70 35 0.0 5.0 0.00 0.00 0.00 53 1016.2
20260507213955 70 141 2.0 6.0 0.00 0.00 0.00 53 1016.0
20260507213452 70 44 2.0 6.0 0.00 0.00 0.00 54 1016.2
20260507212949 71 173 5.0 7.0 0.00 0.00 0.00 53 1016.4
20260507212445 70 192 6.0 10.0 0.00 0.00 0.00 53 1016.3
20260507211942 71 201 7.0 9.0 0.00 0.00 0.00 53 1016.5
20260507211438 71 202 7.0 8.0 0.00 0.00 0.00 53 1016.7
20260507210935 71 191 6.0 7.0 0.00 0.00 0.00 52 1016.6
20260507210432 71 104 3.0 5.0 0.00 0.00 0.00 52 1016.7
20260507205929 71 214 5.0 6.0 0.00 0.00 0.00 51 1016.5
20260507205426 71 95 4.0 6.0 0.00 0.00 0.00 51 1016.6
20260507204922 71 186 3.0 7.0 0.00 0.00 0.00 51 1016.5
20260507204419 71 74 5.0 7.0 0.00 0.00 0.00 51 1016.5
20260507203916 71 51 3.0 6.0 0.00 0.00 0.00 51 1016.4
20260507203414 71 83 7.0 9.0 0.00 0.00 0.00 50 1016.3
20260507202910 72 99 4.0 8.0 0.00 0.00 0.00 50 1016.4
20260507202407 71 202 5.0 7.0 0.00 0.00 0.00 51 1016.3
20260507201903 71 180 3.0 5.0 0.00 0.00 0.00 50 1016.8
20260507201358 72 100 4.0 7.0 0.00 0.00 0.00 49 1016.8
20260507200854 71 36 2.0 3.0 0.00 0.00 0.00 49 1016.8
20260507200351 73 58 6.0 7.0 0.00 0.00 0.00 48 1016.7
20260507195847 72 29 1.0 2.0 0.00 0.00 0.00 48 1017.0
20260507195344 72 41 2.0 5.0 0.00 0.00 0.00 48 1017.0
20260507194842 73 89 5.0 6.0 0.00 0.00 0.00 46 1016.9
20260507194338 72 32 3.0 5.0 0.00 0.00 0.00 48 1017.2
20260507193834 72 17 3.0 6.0 0.00 0.00 0.00 48 1017.2
20260507193332 72 190 3.0 7.0 0.00 0.00 0.00 47 1017.3
20260507192827 73 21 1.0 5.0 0.00 0.00 0.00 46 1017.4
20260507192324 73 320 2.0 6.0 0.00 0.00 0.00 47 1017.5
20260507191820 72 112 2.0 6.0 0.00 0.00 0.00 46 1017.6
20260507191317 72 15 6.0 8.0 0.00 0.00 0.00 46 1017.6
20260507190814 71 35 6.0 7.0 0.00 0.00 0.00 46 1017.6
20260507190313 72 46 5.0 8.0 0.00 0.00 0.00 47 1017.9
20260507185811 70 319 3.0 3.0 0.00 0.00 0.00 47 1017.7
20260507185307 71 60 7.0 10.0 0.00 0.00 0.00 47 1017.7
20260507184804 71 350 2.0 7.0 0.00 0.00 0.00 47 1017.9
20260507184303 71 38 2.0 7.0 0.00 0.00 0.00 48 1017.8
20260507183759 71 25 5.0 11.0 0.00 0.00 0.00 47 1017.5
20260507183256 69 112 3.0 6.0 0.00 0.00 0.00 48 1017.9
20260507182754 70 13 4.0 11.0 0.00 0.00 0.00 48 1017.7
20260507182248 70 33 8.0 13.0 0.00 0.00 0.00 47 1018.2
20260507181745 69 8 1.0 7.0 0.00 0.00 0.00 49 1018.2
20260507181242 69 19 3.0 9.0 0.00 0.00 0.00 49 1018.1
20260507180738 69 53 6.0 13.0 0.00 0.00 0.00 49 1018.3
20260507180235 69 28 7.0 8.0 0.00 0.00 0.00 48 1018.3
20260507175730 69 59 3.0 9.0 0.00 0.00 0.00 49 1017.9
20260507175228 69 38 5.0 8.0 0.00 0.00 0.00 49 1018.4
20260507174725 68 355 5.0 9.0 0.00 0.00 0.00 49 1018.7
20260507174223 68 59 4.0 8.0 0.00 0.00 0.00 52 1018.6
20260507173721 68 70 8.0 11.0 0.00 0.00 0.00 51 1018.6
20260507173217 68 50 2.0 8.0 0.00 0.00 0.00 53 1018.9
20260507172714 68 16 5.0 8.0 0.00 0.00 0.00 53 1018.8
20260507172211 67 15 3.0 5.0 0.00 0.00 0.00 54 1019.1
20260507171710 67 22 3.0 8.0 0.00 0.00 0.00 53 1019.2
20260507171209 67 13 9.0 13.0 0.00 0.00 0.00 54 1019.3
20260507170705 67 21 5.0 8.0 0.00 0.00 0.00 56 1019.4
20260507170202 68 34 5.0 7.0 0.00 0.00 0.00 54 1019.6
20260507165658 67 327 3.0 8.0 0.00 0.00 0.00 55 1019.8
20260507165154 67 0 5.0 10.0 0.00 0.00 0.00 56 1019.9
20260507164650 66 64 3.0 5.0 0.00 0.00 0.00 56 1019.8
20260507164147 66 19 7.0 10.0 0.00 0.00 0.00 56 1020.2
20260507163644 66 31 1.0 5.0 0.00 0.00 0.00 57 1019.8
20260507163142 66 25 4.0 7.0 0.00 0.00 0.00 57 1020.1
20260507162637 64 0 3.0 5.0 0.00 0.00 0.00 59 1020.2
20260507162129 66 14 8.0 9.0 0.00 0.00 0.00 57 1020.1
20260507161625 65 25 4.0 9.0 0.00 0.00 0.00 59 1020.2
20260507161122 64 33 3.0 7.0 0.00 0.00 0.00 62 1020.2
20260507160618 64 31 7.0 9.0 0.00 0.00 0.00 61 1020.1
20260507160115 64 22 8.0 13.0 0.00 0.00 0.00 61 1019.9
20260507155610 64 36 5.0 9.0 0.00 0.00 0.00 62 1020.1
20260507155107 64 63 5.0 7.0 0.00 0.00 0.00 62 1020.1
20260507154604 65 67 3.0 8.0 0.00 0.00 0.00 62 1020.1
20260507154101 64 23 3.0 6.0 0.00 0.00 0.00 64 1020.1
20260507153558 64 3 3.0 6.0 0.00 0.00 0.00 64 1020.4
20260507153054 64 9 3.0 8.0 0.00 0.00 0.00 64 1020.4
20260507152550 64 16 0.0 8.0 0.00 0.00 0.00 64 1020.3
20260507152046 64 0 2.0 5.0 0.00 0.00 0.00 64 1020.4
20260507151543 63 346 4.0 5.0 0.00 0.00 0.00 65 1020.6
20260507151040 63 12 3.0 6.0 0.00 0.00 0.00 65 1020.6
20260507150537 63 359 1.0 6.0 0.00 0.00 0.00 66 1020.3
20260507150034 62 25 3.0 6.0 0.00 0.00 0.00 67 1020.5
20260507145528 63 21 5.0 9.0 0.00 0.00 0.00 66 1020.6
20260507145027 62 28 1.0 1.0 0.00 0.00 0.00 68 1020.5
20260507144523 61 29 2.0 6.0 0.00 0.00 0.00 70 1020.7
20260507144021 62 20 1.0 5.0 0.00 0.00 0.00 69 1020.7
20260507143518 61 13 2.0 7.0 0.00 0.00 0.00 70 1020.5
20260507143015 61 20 0.0 5.0 0.00 0.00 0.00 71 1020.6
20260507142510 61 0 6.0 10.0 0.00 0.00 0.00 71 1020.5
20260507142007 60 35 2.0 6.0 0.00 0.00 0.00 72 1020.7
20260507141503 61 357 4.0 6.0 0.00 0.00 0.00 71 1020.6
20260507141000 60 24 1.0 6.0 0.00 0.00 0.00 73 1020.6
20260507140456 60 1 3.0 7.0 0.00 0.00 0.00 73 1020.8
20260507135954 60 15 2.0 6.0 0.00 0.00 0.00 73 1020.9
20260507135451 61 356 2.0 3.0 0.00 0.00 0.00 73 1021.0
20260507134948 62 346 4.0 6.0 0.00 0.00 0.00 71 1021.0
20260507134444 59 22 0.0 2.0 0.00 0.00 0.00 75 1021.1
20260507133941 59 22 0.0 2.0 0.00 0.00 0.00 78 1021.1
20260507133436 58 348 1.0 2.0 0.00 0.00 0.00 79 1021.0
20260507132936 58 305 3.0 3.0 0.00 0.00 0.00 80 1021.2
20260507132431 57 256 5.0 6.0 0.00 0.00 0.00 81 1021.5
20260507131928 57 304 3.0 3.0 0.00 0.00 0.00 81 1021.1
20260507131425 57 321 2.0 3.0 0.00 0.00 0.00 81 1021.2
20260507130922 57 285 3.0 3.0 0.00 0.00 0.00 82 1021.1
20260507130419 56 248 4.0 5.0 0.00 0.00 0.00 82 1021.0
20260507125918 57 261 3.0 3.0 0.00 0.00 0.00 82 1021.0
20260507125415 57 264 3.0 5.0 0.00 0.00 0.00 82 1021.1
20260507124913 57 290 3.0 6.0 0.00 0.00 0.00 82 1021.1
20260507124408 57 262 2.0 3.0 0.00 0.00 0.00 82 1021.1
20260507123907 57 276 3.0 3.0 0.00 0.00 0.00 82 1021.1
20260507123404 56 6 0.0 1.0 0.00 0.00 0.00 83 1020.8
20260507122900 56 14 1.0 2.0 0.00 0.00 0.00 83 1020.8
20260507122355 56 39 2.0 2.0 0.00 0.00 0.00 84 1020.7
20260507121852 56 46 2.0 2.0 0.00 0.00 0.00 84 1020.9
20260507121347 55 11 0.0 0.0 0.00 0.00 0.00 84 1020.9
20260507120844 55 16 1.0 2.0 0.00 0.00 0.00 84 1020.7
20260507120341 55 3 0.0 0.0 0.00 0.00 0.00 84 1020.7
20260507115837 55 3 0.0 1.0 0.00 0.00 0.00 84 1020.6
20260507115332 55 1 0.0 0.0 0.00 0.00 0.00 84 1020.4
20260507114828 55 344 4.0 6.0 0.00 0.00 0.00 85 1020.8
20260507114326 55 1 2.0 5.0 0.00 0.00 0.00 85 1020.8
20260507113823 55 314 3.0 5.0 0.00 0.00 0.00 85 1020.3
20260507113320 55 342 5.0 7.0 0.00 0.00 0.00 86 1020.6
20260507112818 55 353 2.0 3.0 0.00 0.00 0.00 86 1020.3
20260507112314 55 321 2.0 5.0 0.00 0.00 0.00 86 1020.2
20260507111812 55 357 3.0 5.0 0.00 0.00 0.00 86 1020.2
20260507111308 55 10 1.0 5.0 0.00 0.00 0.00 86 1019.9
20260507110805 55 0 2.0 5.0 0.00 0.00 0.00 86 1020.2
20260507110301 55 352 1.0 3.0 0.00 0.00 0.00 85 1020.0
20260507105758 55 357 2.0 2.0 0.00 0.00 0.00 85 1020.1
20260507105254 55 356 0.0 1.0 0.00 0.00 0.00 86 1019.9
20260507104752 55 340 1.0 3.0 0.00 0.00 0.00 86 1019.8
20260507104248 55 13 1.0 3.0 0.00 0.00 0.00 86 1019.4
20260507103744 55 9 2.0 3.0 0.00 0.00 0.00 86 1019.3
20260507103240 55 19 1.0 3.0 0.00 0.00 0.00 85 1019.2
20260507102737 55 4 2.0 5.0 0.00 0.00 0.00 85 1019.1
20260507102234 55 11 3.0 5.0 0.00 0.00 0.00 84 1019.3
20260507101730 55 358 2.0 6.0 0.00 0.00 0.00 84 1019.2
20260507101225 55 8 1.0 5.0 0.00 0.00 0.00 84 1019.1
20260507100722 55 18 4.0 5.0 0.00 0.00 0.00 83 1018.9
20260507100221 55 25 3.0 5.0 0.00 0.00 0.00 83 1018.9
20260507095719 55 22 1.0 3.0 0.00 0.00 0.00 83 1018.9
20260507095215 55 37 3.0 6.0 0.00 0.00 0.00 82 1018.8
20260507094712 55 33 4.0 6.0 0.00 0.00 0.00 82 1018.7
20260507094209 55 26 2.0 5.0 0.00 0.00 0.00 82 1018.6
20260507093705 55 17 3.0 5.0 0.00 0.00 0.00 82 1018.7
20260507093204 55 19 3.0 6.0 0.00 0.00 0.00 82 1018.7
20260507092701 55 22 2.0 3.0 0.00 0.00 0.00 82 1018.7
20260507092157 55 18 2.0 7.0 0.00 0.00 0.00 82 1018.7
20260507091654 55 44 3.0 3.0 0.00 0.00 0.00 82 1018.6
20260507091150 55 35 2.0 10.0 0.00 0.00 0.00 82 1018.5
20260507090646 55 21 4.0 5.0 0.00 0.00 0.00 82 1018.2
20260507090143 55 35 3.0 8.0 0.00 0.00 0.00 82 1018.4
20260507085640 56 6 1.0 3.0 0.00 0.00 0.00 83 1018.3
20260507085137 56 33 7.0 8.0 0.00 0.00 0.00 83 1018.4
20260507084633 56 19 3.0 6.0 0.00 0.00 0.00 83 1018.6
20260507084130 56 11 6.0 7.0 0.00 0.00 0.00 83 1018.4
20260507083627 56 22 3.0 8.0 0.00 0.00 0.00 83 1018.4
20260507083124 56 14 1.0 5.0 0.00 0.00 0.00 83 1018.7
20260507082619 56 57 7.0 8.0 0.00 0.00 0.00 82 1018.5
20260507082116 56 19 2.0 5.0 0.00 0.00 0.00 82 1018.3
20260507081613 56 25 2.0 6.0 0.00 0.00 0.00 83 1018.4
20260507081109 56 21 4.0 7.0 0.00 0.00 0.00 83 1018.5
20260507080606 56 34 2.0 5.0 0.00 0.00 0.00 83 1018.4
20260507075557 56 8 4.0 10.0 0.00 0.00 0.00 83 1018.2
20260507075054 56 19 3.0 5.0 0.00 0.00 0.00 83 1018.2
20260507074551 56 26 2.0 6.0 0.00 0.00 0.00 83 1017.9
20260507074049 56 24 3.0 9.0 0.00 0.00 0.00 83 1017.9
20260507073545 56 30 3.0 5.0 0.00 0.00 0.00 83 1017.7
20260507073041 57 28 1.0 5.0 0.00 0.00 0.00 82 1017.7
20260507072539 57 45 3.0 9.0 0.00 0.00 0.00 82 1017.6
20260507072036 57 4 4.0 8.0 0.00 0.00 0.00 82 1017.5
20260507071534 57 42 5.0 10.0 0.00 0.00 0.00 82 1017.8
20260507071030 57 33 6.0 9.0 0.00 0.00 0.00 81 1017.6
20260507070527 57 56 3.0 6.0 0.00 0.00 0.00 81 1017.7
20260507070024 57 15 5.0 7.0 0.00 0.00 0.00 81 1017.7
20260507065520 57 35 5.0 7.0 0.00 0.00 0.00 80 1017.5
20260507065018 57 43 2.0 5.0 0.00 0.00 0.00 80 1017.6
20260507064515 57 23 1.0 7.0 0.00 0.00 0.00 80 1017.8
20260507064014 57 39 4.0 8.0 0.00 0.00 0.00 80 1017.8
20260507063511 57 25 3.0 5.0 0.00 0.00 0.00 79 1017.7
20260507063008 57 59 4.0 6.0 0.00 0.00 0.00 79 1017.7
20260507062504 57 21 5.0 10.0 0.00 0.00 0.00 79 1017.6
20260507062002 57 49 3.0 8.0 0.00 0.00 0.00 79 1017.7
20260507061500 58 43 3.0 8.0 0.00 0.00 0.00 79 1017.6
20260507060958 58 33 5.0 8.0 0.00 0.00 0.00 80 1017.5
20260507060455 58 22 7.0 9.0 0.00 0.00 0.00 80 1017.3
20260507055951 58 42 4.0 6.0 0.00 0.00 0.00 80 1017.5
20260507055446 58 48 3.0 7.0 0.00 0.00 0.00 80 1017.5
20260507054943 58 30 3.0 7.0 0.00 0.00 0.00 79 1017.4
20260507054439 58 62 5.0 11.0 0.00 0.00 0.00 79 1017.5
20260507053937 59 32 8.0 10.0 0.00 0.00 0.00 79 1017.6
20260507053434 59 24 8.0 8.0 0.00 0.00 0.00 79 1017.5
20260507052933 59 41 6.0 11.0 0.00 0.00 0.00 79 1017.5
20260507052430 59 41 4.0 7.0 0.00 0.00 0.00 79 1017.5
20260507051927 59 36 3.0 8.0 0.00 0.00 0.00 78 1017.6
20260507051424 59 32 5.0 9.0 0.00 0.00 0.00 78 1017.6
20260507050921 59 38 7.0 9.0 0.00 0.00 0.00 78 1017.6
20260507050418 59 76 3.0 6.0 0.00 0.00 0.00 78 1017.7
20260507045915 59 51 5.0 7.0 0.00 0.08 0.08 78 1017.6
20260507045411 59 19 1.0 8.0 0.00 0.08 0.08 78 1017.7
20260507044909 59 20 5.0 9.0 0.00 0.08 0.08 78 1017.8
20260507044405 59 23 4.0 10.0 0.00 0.08 0.08 78 1017.8
20260507043901 59 19 3.0 8.0 0.00 0.08 0.08 78 1017.9
20260507043357 59 26 5.0 9.0 0.00 0.08 0.08 78 1018.1
20260507042854 59 45 5.0 14.0 0.00 0.08 0.08 78 1017.8
20260507042350 59 29 3.0 10.0 0.00 0.08 0.08 78 1017.9
20260507041846 59 22 4.0 10.0 0.00 0.08 0.08 77 1018.1
20260507041343 59 25 3.0 10.0 0.00 0.08 0.08 77 1018.1
20260507040841 60 359 10.0 14.0 0.00 0.08 0.08 77 1018.3
20260507040336 60 25 5.0 13.0 0.00 0.08 0.08 77 1018.2
20260507035833 60 53 3.0 8.0 0.00 0.08 0.08 77 1018.5
20260507035328 60 38 7.0 11.0 0.00 0.08 0.08 77 1018.2
20260507034826 60 29 6.0 8.0 0.00 0.08 0.08 77 1018.2
20260507034323 60 18 7.0 14.0 0.00 0.08 0.08 77 1018.2
20260507033821 60 30 3.0 7.0 0.00 0.08 0.08 77 1018.2
20260507033319 60 36 4.0 11.0 0.00 0.08 0.08 77 1018.2
20260507032815 60 16 1.0 8.0 0.00 0.08 0.08 77 1018.2
20260507032311 60 13 6.0 10.0 0.00 0.08 0.08 76 1017.9
20260507031808 60 22 8.0 11.0 0.00 0.08 0.08 76 1017.8
20260507031305 60 23 6.0 10.0 0.00 0.08 0.08 76 1017.6
20260507030801 60 3 8.0 21.0 0.00 0.08 0.08 76 1017.7
20260507030259 60 12 4.0 9.0 0.00 0.08 0.08 77 1017.6
20260507025756 60 15 3.0 7.0 0.00 0.08 0.08 77 1017.6
20260507025253 60 36 8.0 10.0 0.00 0.08 0.08 78 1017.3
20260507024751 60 30 3.0 9.0 0.00 0.08 0.08 78 1017.4
20260507024248 60 55 11.0 14.0 0.00 0.08 0.08 78 1017.4
20260507023743 60 55 9.0 13.0 0.00 0.08 0.08 78 1017.2
20260507023241 60 36 2.0 6.0 0.00 0.08 0.08 78 1017.1
20260507022738 60 9 5.0 9.0 0.00 0.08 0.08 78 1016.9
20260507022234 60 13 6.0 8.0 0.00 0.08 0.08 78 1016.7
20260507021730 60 13 4.0 9.0 0.00 0.08 0.08 79 1016.8
20260507021226 60 0 9.0 15.0 0.00 0.08 0.08 79 1016.7
20260507020724 60 38 10.0 14.0 0.00 0.08 0.08 79 1016.7
20260507020220 60 33 8.0 13.0 0.00 0.08 0.08 80 1016.4
20260507015718 60 19 5.0 13.0 0.00 0.08 0.08 80 1016.3
20260507015215 60 13 7.0 14.0 0.00 0.08 0.08 80 1016.3
20260507014712 60 24 4.0 16.0 0.00 0.08 0.08 80 1016.1
20260507014208 60 29 7.0 9.0 0.00 0.08 0.08 80 1015.8
20260507013705 60 27 7.0 9.0 0.00 0.08 0.08 80 1015.9
20260507013203 60 16 9.0 11.0 0.00 0.08 0.08 80 1015.9